TimeCST,TemperatureF,Dew PointF,Humidity,Sea Level PressureIn,VisibilityMPH,Wind Direction,Wind SpeedMPH,Gust SpeedMPH,PrecipitationIn,Events,Conditions,WindDirDegrees,DateUTC
12:41 AM,59.0,59.0,100,30.04,7.0,Calm,Calm,-,N/A,,Clear,0,2012-11-02 06:41:00
1:41 AM,60.8,59.0,94,30.02,7.0,Calm,Calm,-,N/A,,Clear,0,2012-11-02 07:41:00
2:41 AM,57.2,57.2,100,30.06,7.0,Calm,Calm,-,N/A,,Clear,0,2012-11-02 08:41:00
3:41 AM,59.0,59.0,100,30.02,7.0,Calm,Calm,-,N/A,,Clear,0,2012-11-02 09:41:00
4:42 AM,59.0,57.2,94,30.02,7.0,Calm,Calm,-,N/A,,Clear,0,2012-11-02 10:42:00
5:44 AM,57.2,57.2,100,30.01,7.0,Calm,Calm,-,N/A,,Partly Cloudy,0,2012-11-02 11:44:00
6:47 AM,60.8,60.8,100,30.06,8.0,Calm,Calm,-,N/A,,Mostly Cloudy,0,2012-11-02 12:47:00
7:46 AM,73.4,66.2,78,30.07,10.0,East,4.6,-,N/A,,Scattered Clouds,80,2012-11-02 13:46:00
8:42 AM,77.0,62.6,61,30.11,10.0,ENE,8.1,-,N/A,,Partly Cloudy,60,2012-11-02 14:42:00
9:40 AM,78.8,62.6,57,30.09,10.0,East,10.4,-,N/A,,Partly Cloudy,80,2012-11-02 15:40:00
10:43 AM,78.8,60.8,54,30.07,10.0,ENE,11.5,-,N/A,,Scattered Clouds,60,2012-11-02 16:43:00
11:42 AM,80.6,62.6,54,30.03,10.0,ENE,8.1,-,N/A,,Mostly Cloudy,70,2012-11-02 17:42:00
12:42 PM,78.8,62.6,57,30.02,10.0,NE,10.4,-,N/A,,Mostly Cloudy,40,2012-11-02 18:42:00
1:42 PM,78.8,60.8,54,30.00,10.0,ENE,11.5,-,N/A,,Mostly Cloudy,60,2012-11-02 19:42:00
2:43 PM,78.8,60.8,54,30.01,10.0,ENE,9.2,-,N/A,,Mostly Cloudy,60,2012-11-02 20:43:00
3:42 PM,77.0,62.6,61,30.00,10.0,ENE,8.1,-,N/A,,Scattered Clouds,70,2012-11-02 21:42:00
4:46 PM,75.2,62.6,65,30.00,8.0,ENE,4.6,-,N/A,,Scattered Clouds,70,2012-11-02 22:46:00
5:46 PM,69.8,62.6,78,29.97,8.0,Calm,Calm,-,N/A,,Scattered Clouds,0,2012-11-02 23:46:00
6:44 PM,68.0,62.6,83,30.03,8.0,Calm,Calm,-,N/A,,Scattered Clouds,0,2012-11-03 00:44:00
7:43 PM,64.4,62.6,94,30.05,8.0,Calm,Calm,-,N/A,,Scattered Clouds,0,2012-11-03 01:43:00
8:41 PM,66.2,62.6,88,30.09,7.0,Calm,Calm,-,N/A,,Scattered Clouds,0,2012-11-03 02:41:00
9:50 PM,64.4,62.6,94,30.07,7.0,Calm,Calm,-,N/A,,Scattered Clouds,0,2012-11-03 03:50:00
10:44 PM,66.2,60.8,83,30.06,7.0,East,6.9,-,N/A,,Scattered Clouds,80,2012-11-03 04:44:00
11:50 PM,62.6,60.8,94,30.01,7.0,East,3.5,-,N/A,,Scattered Clouds,80,2012-11-03 05:50:00